Estación Meteorológica Peña el Pijo (Robertgarden) [ 07/11/20 23:22:01 CEST ]

Fecha Hora Presion(HPa) Temp (°C) Humedad % Rocio (°C) Viento ( m/s) Direccion Lluvia 1Hora(mm) Lluvia 24H(mm) LLuvia Total(mm)
2020-Mar-22 01:09:28 1000.000 - - - - N     39.88
2020-Mar-22 02:10:31 999.800 - - - - N     39.88
2020-Mar-22 03:10:02 999.200 - - - - N     39.88
2020-Mar-22 04:09:42 998.800 - - - - N     39.88
2020-Mar-22 05:09:06 998.900 - - - - N     39.88
2020-Mar-22 06:09:23 998.800 - - - - N     39.88
2020-Mar-22 07:09:34 999.400 - - - - N     39.88
2020-Mar-22 08:09:25 999.400 - - - - N     39.88
2020-Mar-22 09:09:21 999.300 - - - - N     39.88
2020-Mar-22 10:09:36 999.700 - - - - N     39.88
2020-Mar-22 11:09:03 999.800 - - - - N     39.88
2020-Mar-22 12:09:20 999.600 - - - - N     39.88
2020-Mar-22 13:09:32 999.300 - - - - N     39.88
2020-Mar-22 14:09:14 998.900 - - - - N     39.88
2020-Mar-22 15:09:25 998.400 - - - - N     39.88
2020-Mar-22 16:08:50 998.400 - - - - N     39.88
2020-Mar-22 17:08:52 998.400 - - - - N     39.88
2020-Mar-22 18:09:26 999.000 - - - - N     39.88
2020-Mar-22 19:09:39 999.800 - - - - N     39.88
2020-Mar-22 20:09:06 1000.400 - - - - N     39.88
2020-Mar-22 21:09:18 1001.100 - - - - N     39.88
2020-Mar-22 22:09:17 1001.600 - - - - N     39.88
2020-Mar-22 23:09:27 1001.700 - - - - N     39.88

Temperatura Máxima:    Temperatura Mínima:
Presión Máxima:1001.700 Hpa    Presión Mínima:998.400 Hpa


Volver